Weather in Lyantor

Russia / Khanty-Mansi Autonomous Okrug — Yugra     61°37′14″N   72°09′19″E
temp.,
°C
wind,
m/s
gust,
m/s
humid.,
%
clouds,
%
prec.,
mm/h
press.,
hPa
HPBL,
m
6 may, thu
thu623:00+14sse61182100 2.9 997145
02:00+11sse61276100 0.0 995158
05:00+11sse81472100 0.0 992235
08:00+13s91767100 0.1 989556
11:00+13wsw101274100 0.8 9891184
14:00+7wsw131778100 0.4 9931049
17:00+10w11165642 0.4 9961838
20:00+8w7116677 0.2 997325
7 may, fri
fri723:00+6wsw9156711 0.3 999552
02:00+4w915675 0.0 1000597
05:00+2w10157084 0.0 1002967
08:00+4w121565100 0.0 10031365
11:00+5w121660100 0.1 10051715
14:00+7wnw121852100 0.1 10072041
17:00+9nw11174692 0.1 10082153
20:00+6nw8145725 0.0 1011542
8 may, sat
sat823:00+3nw613665 0.0 1013400
02:00+1nw611731 0.0 1015300
05:00+1nw510783 0.0 1017310
08:00+4nw57605 0.0 1018599
11:00+8nw46475 0.0 1018800
14:00+11nw35415 0.0 1018882
17:00+13ne214227 0.0 1018690
20:00+11e575595 0.0 1018128
9 may, sun
sun923:00+8se586493 0.0 1019184
02:00+8se227224 0.0 102049
05:00+6nne35750 0.0 102291
08:00+10nne33590 0.0 1023473
11:00+13nne23500 0.0 10241049
14:00+15nne22395 0.0 10241525
17:00+16nne113515 0.0 10231737
20:00+14ne1247100 0.0 102415
10 may, mon
mon1023:00+11se45593 0.0 102472
02:00+9s57675 0.0 102496
05:00+9sw4567100 0.0 102392
08:00+13wnw5648100 0.0 1023375
11:00+17nw4539100 0.0 10221087
14:00+18nnw453361 0.0 10211869
17:00+19n35315 0.0 10201793
20:00+15e574990 0.0 1019122